Location: Chuathbaluk
(61.5726°N, 159.2454°W)
Time: 17:07:23
(UTC+00:00)

ZACube-1 - Pass Details

Date: 23 January 2021
Orbit: 583 x 666 km, 97.6° (Epoch: 04 March)

Event Time Altitude Azimuth Distance (km) Brightness Sun altitude
Rises 04:10:38 0° 213° (SSW) 2,960 ? -12.6°
Reaches altitude 10° 04:13:29 10° 233° (SW) 2,068 ? -12.9°
Maximum altitude 04:16:35 18° 276° (W) 1,616 ? -13.2°
Drops below altitude 10° 04:19:44 10° 319° (NW) 2,099 ? -13.6°
Sets 04:22:39 0° 339° (NNW) 3,023 ? -13.9°
